AUA5PC LOWW-EPWA

Flight info

Callsign AUA5PC
Flight time N/A
Altitude 35000
Route LEDVA DCT NETIR DCT LIGDI DCT KURON T709 KOTEK M866 LOGDA
Aircraft A320/M-SDE3FGHIRWY/LB1

Departure

Time N/A
Airport Vienna International Airport (LOWW)

Arrival

Time 2026-05-06 17:38
Airport Warsaw Chopin Airport (EPWA)
Time Latitude Longitude Altitude Speed Heading
2026-05-06 17:27 51.94778 20.81593 8511 ft 285 kts 328°
2026-05-06 17:27 51.96548 20.80364 8391 ft 279 kts 345°
2026-05-06 17:27 51.98450 20.80577 8248 ft 276 kts 19°
2026-05-06 17:28 51.99961 20.82433 7924 ft 275 kts 56°
2026-05-06 17:28 52.00919 20.85115 7525 ft 275 kts 63°
2026-05-06 17:28 52.01778 20.87884 7163 ft 274 kts 69°
2026-05-06 17:28 52.02067 20.90851 6786 ft 264 kts 102°
2026-05-06 17:29 52.01470 20.93574 6488 ft 250 kts 130°
2026-05-06 17:29 52.00261 20.95485 6303 ft 239 kts 154°
2026-05-06 17:29 51.98810 20.96791 6049 ft 237 kts 156°
2026-05-06 17:29 51.97364 20.98067 5786 ft 236 kts 156°
2026-05-06 17:30 51.95934 20.99329 5534 ft 237 kts 155°
2026-05-06 17:30 51.94486 21.00606 5267 ft 236 kts 155°
2026-05-06 17:30 51.93043 21.01873 5003 ft 236 kts 155°
2026-05-06 17:30 51.91601 21.03133 4883 ft 235 kts 155°
2026-05-06 17:31 51.90160 21.04387 4776 ft 235 kts 155°
2026-05-06 17:31 51.88828 21.05915 4652 ft 239 kts 132°
2026-05-06 17:31 51.88174 21.08395 4526 ft 247 kts 95°
2026-05-06 17:31 51.88522 21.11043 4404 ft 239 kts 64°
2026-05-06 17:32 51.89298 21.13376 4270 ft 233 kts 62°
2026-05-06 17:32 51.90184 21.15546 4132 ft 231 kts 42°
2026-05-06 17:32 51.91547 21.16837 4028 ft 227 kts 12°
2026-05-06 17:32 51.93091 21.16905 4005 ft 222 kts 342°
2026-05-06 17:33 51.94487 21.15926 4011 ft 219 kts 327°
2026-05-06 17:33 51.95821 21.14770 3831 ft 217 kts 328°
2026-05-06 17:33 51.97108 21.13656 3692 ft 208 kts 327°
2026-05-06 17:33 51.98352 21.12570 3550 ft 199 kts 328°
2026-05-06 17:34 51.99559 21.11516 3362 ft 195 kts 327°
2026-05-06 17:34 52.00744 21.10487 3081 ft 192 kts 327°
2026-05-06 17:34 52.01923 21.09465 3009 ft 193 kts 327°
2026-05-06 17:34 52.03111 21.08434 2983 ft 195 kts 328°
2026-05-06 17:35 52.04288 21.07414 2791 ft 188 kts 328°
2026-05-06 17:35 52.05409 21.06443 2563 ft 178 kts 328°
2026-05-06 17:35 52.06481 21.05512 2351 ft 171 kts 328°
2026-05-06 17:36 52.08553 21.03708 1913 ft 167 kts 328°
2026-05-06 17:36 52.09549 21.02844 1692 ft 155 kts 328°
2026-05-06 17:36 52.10463 21.02046 1483 ft 147 kts 326°
2026-05-06 17:36 52.11350 21.01257 1290 ft 144 kts 327°
2026-05-06 17:37 52.12235 21.00494 1100 ft 142 kts 329°
2026-05-06 17:37 52.13097 20.99748 868 ft 138 kts 330°
2026-05-06 17:37 52.13949 20.99007 721 ft 139 kts 331°
2026-05-06 17:37 52.14797 20.98263 534 ft 139 kts 332°
2026-05-06 17:38 52.15646 20.97524 377 ft 136 kts 330°
2026-05-06 17:38 52.16400 20.96870 335 ft 109 kts 330°
2026-05-06 17:38 52.16974 20.96362 335 ft 83 kts 332°
2026-05-06 17:38 52.17363 20.96065 338 ft 43 kts 353°
2026-05-06 17:39 52.17553 20.96074 339 ft 11 kts 17°
2026-05-06 17:39 52.17559 20.96079 339 ft 0 kts 25°
2026-05-06 17:40 52.17571 20.96097 339 ft 6 kts 50°
2026-05-06 17:41 52.17575 20.96210 339 ft 15 kts 118°
2026-05-06 17:41 52.17488 20.96309 338 ft 15 kts 150°
2026-05-06 17:41 52.17441 20.96422 339 ft 12 kts 74°
2026-05-06 17:41 52.17468 20.96537 336 ft 10 kts 91°
2026-05-06 17:42 52.17426 20.96605 339 ft 8 kts 151°
2026-05-06 17:42 52.17348 20.96672 334 ft 18 kts 151°
2026-05-06 17:42 52.17263 20.96748 335 ft 13 kts 151°
2026-05-06 17:42 52.17190 20.96811 335 ft 11 kts 151°
2026-05-06 17:43 52.17099 20.96892 336 ft 18 kts 152°
2026-05-06 17:43 52.16992 20.96985 336 ft 17 kts 152°
2026-05-06 17:43 52.16897 20.97067 337 ft 13 kts 151°
2026-05-06 17:43 52.16898 20.97125 337 ft 5 kts 68°
2026-05-06 17:44 52.16906 20.97173 334 ft 5 kts 76°
2026-05-06 17:44 52.16913 20.97216 338 ft 2 kts 76°
2026-05-06 17:44 52.16913 20.97221 338 ft 0 kts 76°
2026-05-06 17:44 52.16915 20.97231 336 ft 0 kts 76°